FW4092 Weather Reports


time (UTC)temp
C
wind
direction
speed
KPH
gust
KPH
rain 1hr
cm
rain 24hr
cm
rain mn
cm
humidity
%
barometer
mb
20260902070529 13 306 6.4 16.1 0.00 0.00 0.00 72 1008.5
20260902070028 13 323 6.4 12.9 0.00 0.00 0.00 72 1008.5
20260902065537 13 265 6.4 14.5 0.00 0.00 0.00 71 1008.6
20260902065300 13 264 6.4 14.5 0.00 0.00 0.00 71 1008.6
20260902064527 13 258 6.4 14.5 0.00 0.00 0.00 71 1008.6
20260902064257 13 300 6.4 17.7 0.00 0.00 0.00 71 1008.6
20260902063527 13 279 6.4 17.7 0.00 0.00 0.00 70 1008.7
20260902063029 13 250 8.0 16.1 0.00 0.00 0.00 70 1008.7
20260902062758 13 261 8.0 16.1 0.00 0.00 0.00 69 1008.7
20260902062027 13 288 6.4 16.1 0.00 0.00 0.00 69 1008.7
20260902061526 13 290 6.4 14.5 0.00 0.00 0.00 68 1008.7
20260902061026 13 294 6.4 14.5 0.00 0.00 0.00 68 1008.7
20260902060810 13 290 8.0 16.1 0.00 0.00 0.00 67 1008.7
20260902060035 14 285 6.4 16.1 0.00 0.00 0.00 67 1008.7
20260902055526 14 279 4.8 11.3 0.00 0.00 0.00 66 1008.9
20260902055023 14 296 6.4 12.9 0.00 0.00 0.00 66 1008.9
20260902054519 14 298 6.4 12.9 0.00 0.00 0.00 66 1009.0
20260902054011 14 274 8.0 19.3 0.00 0.00 0.00 65 1009.0
20260902053503 14 306 8.0 19.3 0.00 0.00 0.00 65 1008.9
20260902053001 14 294 6.4 14.5 0.00 0.00 0.00 64 1009.0
20260902052453 14 294 6.4 14.5 0.00 0.00 0.00 64 1008.9
20260902051948 14 293 6.4 14.5 0.00 0.00 0.00 63 1008.7
20260902051440 15 317 6.4 14.5 0.00 0.00 0.00 63 1008.7
20260902050934 15 327 6.4 14.5 0.00 0.00 0.00 63 1008.6
20260902050431 15 288 6.4 14.5 0.00 0.00 0.00 63 1008.6
20260902045922 15 277 4.8 12.9 0.00 0.00 0.00 62 1008.6
20260902045423 15 287 4.8 12.9 0.00 0.00 0.00 62 1008.6
20260902045153 15 293 3.2 11.3 0.00 0.00 0.00 62 1008.5
20260902044418 15 290 4.8 11.3 0.00 0.00 0.00 62 1008.5
20260902043928 15 314 4.8 16.1 0.00 0.00 0.00 61 1008.4
20260902043418 15 305 6.4 16.1 0.00 0.00 0.00 61 1008.4
20260902042918 15 296 6.4 14.5 0.00 0.00 0.00 62 1008.3
20260902042417 15 316 6.4 16.1 0.00 0.00 0.00 62 1008.3
20260902042150 15 294 6.4 16.1 0.00 0.00 0.00 62 1008.2
20260902041417 15 329 6.4 16.1 0.00 0.00 0.00 62 1008.2
20260902040918 15 331 8.0 17.7 0.00 0.00 0.00 62 1008.1
20260902040418 15 300 6.4 17.7 0.00 0.00 0.00 61 1008.0
20260902035918 15 279 8.0 16.1 0.00 0.00 0.00 61 1007.9
20260902035418 15 300 9.7 22.5 0.00 0.00 0.00 61 1007.8
20260902034916 15 283 8.0 22.5 0.00 0.00 0.00 61 1007.7
20260902034416 15 233 8.0 16.1 0.00 0.00 0.00 61 1007.7
20260902033916 15 284 9.7 19.3 0.00 0.00 0.00 61 1007.3
20260902033416 15 319 8.0 20.9 0.00 0.00 0.00 61 1007.5
20260902032916 16 244 6.4 20.9 0.00 0.00 0.00 61 1007.3
20260902032415 16 297 6.4 27.4 0.00 0.00 0.00 61 1007.3
20260902032204 16 348 11.3 27.4 0.00 0.00 0.00 60 1007.0
20260902032200 16 319 9.7 27.4 0.00 0.00 0.00 61 1007.2
20260902031157 16 277 11.3 27.4 0.00 0.00 0.00 60 1007.0
20260902030652 16 269 8.0 27.4 0.00 0.00 0.00 59 1006.8
20260902030154 16 332 11.3 27.4 0.00 0.00 0.00 58 1006.7
20260902025414 16 298 12.9 27.4 0.00 0.00 0.00 57 1006.7
20260902024916 17 275 11.3 25.7 0.00 0.00 0.00 57 1006.7
20260902024655 17 260 11.3 25.7 0.00 0.00 0.00 56 1006.6
20260902023922 17 286 12.9 25.7 0.00 0.00 0.00 55 1006.5
20260902023424 17 259 12.9 30.6 0.00 0.00 0.00 55 1006.4
20260902022922 17 303 11.3 30.6 0.00 0.00 0.00 54 1006.5
20260902022421 17 275 11.3 25.7 0.00 0.00 0.00 53 1006.4
20260902021917 17 304 12.9 27.4 0.00 0.00 0.00 52 1006.4
20260902021417 18 240 12.9 27.4 0.00 0.00 0.00 52 1006.4
20260902020913 18 295 11.3 24.1 0.00 0.00 0.00 51 1006.4
20260902020409 18 260 11.3 24.1 0.00 0.00 0.00 51 1006.4
20260902015900 18 269 11.3 27.4 0.00 0.00 0.00 50 1006.4
20260902015355 18 261 9.7 27.4 0.00 0.00 0.00 50 1006.4
20260902014848 18 333 11.3 24.1 0.00 0.00 0.00 51 1006.2
20260902014343 18 269 12.9 25.7 0.00 0.00 0.00 51 1006.4
20260902013838 18 269 16.1 29.0 0.00 0.00 0.00 51 1006.4
20260902013331 19 275 14.5 33.8 0.00 0.00 0.00 50 1006.2
20260902012825 19 243 11.3 29.0 0.00 0.00 0.00 50 1006.1
20260902012319 19 298 9.7 27.4 0.00 0.00 0.00 50 1006.0
20260902012044 19 234 11.3 22.5 0.00 0.00 0.00 51 1005.9
20260902011308 19 306 11.3 22.5 0.00 0.00 0.00 51 1005.9
20260902010802 19 280 11.3 30.6 0.00 0.00 0.00 51 1005.8
20260902010531 19 302 11.3 30.6 0.00 0.00 0.00 50 1005.7
20260902005749 20 309 14.5 37.0 0.00 0.00 0.00 49 1005.7
20260902005244 20 278 17.7 37.0 0.00 0.00 0.00 47 1005.5
20260902004741 20 313 19.3 35.4 0.00 0.00 0.00 47 1005.7
20260902004243 20 300 19.3 35.4 0.00 0.00 0.00 46 1005.7
20260902003741 20 295 16.1 35.4 0.00 0.00 0.00 45 1005.7
20260902003242 20 277 16.1 32.2 0.00 0.00 0.00 44 1005.7
20260902002742 20 332 16.1 27.4 0.00 0.00 0.00 44 1005.7
20260902002242 21 322 14.5 30.6 0.00 0.00 0.00 43 1005.6
20260902001747 21 284 17.7 33.8 0.00 0.00 0.00 42 1005.5
20260902001241 21 248 19.3 33.8 0.00 0.00 0.00 41 1005.5
20260902000741 21 215 17.7 33.8 0.00 0.00 0.00 41 1005.4
20260902000242 21 232 17.7 30.6 0.00 0.00 0.00 40 1005.4
20260901235741 21 315 16.1 30.6 0.00 0.00 0.00 40 1005.4
20260901235242 21 275 17.7 35.4 0.00 0.00 0.00 39 1005.5
20260901234741 22 275 16.1 35.4 0.00 0.00 0.00 39 1005.5
20260901234241 22 253 14.5 30.6 0.00 0.00 0.00 37 1005.5
20260901233741 22 302 16.1 30.6 0.00 0.00 0.00 36 1005.5
20260901233240 23 250 14.5 27.4 0.00 0.00 0.00 35 1005.5
20260901232741 23 343 16.1 27.4 0.00 0.00 0.00 34 1005.5
20260901232235 23 301 17.7 35.4 0.00 0.00 0.00 34 1005.6
20260901231729 23 306 17.7 35.4 0.00 0.00 0.00 34 1005.6
20260901231223 24 286 17.7 30.6 0.00 0.00 0.00 34 1005.6
20260901230716 23 275 16.1 33.8 0.00 0.00 0.00 35 1005.6
20260901230214 24 307 16.1 33.8 0.00 0.00 0.00 34 1005.5
20260901225712 24 294 17.7 30.6 0.00 0.00 0.00 35 1005.5
20260901225214 23 254 16.1 30.6 0.00 0.00 0.00 35 1005.6
20260901224713 23 295 14.5 25.7 0.00 0.00 0.00 35 1005.7
20260901224213 23 251 14.5 25.7 0.00 0.00 0.00 35 1005.6
20260901223714 23 319 14.5 25.7 0.00 0.00 0.00 34 1005.6
20260901223458 23 295 14.5 25.7 0.00 0.00 0.00 33 1005.6
20260901222712 24 298 12.9 24.1 0.00 0.00 0.00 33 1005.5
20260901222451 24 261 14.5 27.4 0.00 0.00 0.00 32 1005.5
20260901221951 24 306 16.1 27.4 0.00 0.00 0.00 31 1005.5
20260901221458 25 304 12.9 25.7 0.00 0.00 0.00 30 1005.4
20260901220710 25 270 11.3 29.0 0.00 0.00 0.00 28 1005.4
20260901220447 26 311 11.3 29.0 0.00 0.00 0.00 27 1005.3
20260901215708 26 348 12.9 24.1 0.00 0.00 0.00 26 1005.3
20260901215210 26 306 14.5 24.1 0.00 0.00 0.00 26 1005.3
20260901214709 26 294 12.9 24.1 0.00 0.00 0.00 26 1005.2
20260901214218 26 288 9.7 22.5 0.00 0.00 0.00 26 1005.2
20260901213717 27 296 9.7 20.9 0.00 0.00 0.00 25 1005.3
20260901213220 27 344 9.7 20.9 0.00 0.00 0.00 24 1005.4
20260901212719 27 342 8.0 19.3 0.00 0.00 0.00 25 1005.4
20260901212211 27 321 8.0 19.3 0.00 0.00 0.00 25 1005.4
20260901211705 27 325 6.4 17.7 0.00 0.00 0.00 25 1005.5
20260901211158 26 355 8.0 17.7 0.00 0.00 0.00 26 1005.5
20260901210927 27 355 9.7 20.9 0.00 0.00 0.00 26 1005.6
20260901210148 26 329 6.4 20.9 0.00 0.00 0.00 26 1005.5
20260901205642 26 5 4.8 14.5 0.00 0.00 0.00 27 1005.7
20260901205136 26 0 6.4 20.9 0.00 0.00 0.00 27 1005.8
20260901204629 26 265 6.4 20.9 0.00 0.00 0.00 27 1005.8
20260901204135 26 340 6.4 19.3 0.00 0.00 0.00 27 1005.9
20260901204130 26 355 6.4 19.3 0.00 0.00 0.00 26 1005.8
20260901203343 26 355 6.4 17.7 0.00 0.00 0.00 27 1005.9
20260901202604 26 340 8.0 24.1 0.00 0.00 0.00 27 1006.0
20260901202059 26 313 6.4 24.1 0.00 0.00 0.00 27 1006.0
20260901201553 26 275 4.8 16.1 0.00 0.00 0.00 27 1006.0
20260901201046 26 338 4.8 14.5 0.00 0.00 0.00 29 1006.0
20260901200542 25 350 4.8 11.3 0.00 0.00 0.00 32 1006.1
20260901200035 25 242 3.2 11.3 0.00 0.00 0.00 32 1006.1
20260901195531 25 349 3.2 8.0 0.00 0.00 0.00 33 1006.2
20260901195020 25 59 3.2 8.0 0.00 0.00 0.00 32 1006.2
20260901194517 25 73 4.8 12.9 0.00 0.00 0.00 33 1006.4
20260901194016 25 343 4.8 12.9 0.00 0.00 0.00 33 1006.5
20260901193506 25 348 3.2 9.7 0.00 0.00 0.00 33 1006.6
20260901192959 25 32 3.2 9.7 0.00 0.00 0.00 34 1006.7
20260901192453 25 202 3.2 9.7 0.00 0.00 0.00 33 1006.8
20260901191947 25 302 4.8 14.5 0.00 0.00 0.00 34 1006.8
20260901191440 25 338 4.8 14.5 0.00 0.00 0.00 33 1006.9
20260901190937 25 355 3.2 14.5 0.00 0.00 0.00 34 1007.0
20260901190429 25 19 1.6 11.3 0.00 0.00 0.00 33 1007.0
20260901185926 24 43 1.6 6.4 0.00 0.00 0.00 33 1007.1
20260901185419 24 260 1.6 4.8 0.00 0.00 0.00 33 1007.2
20260901184912 24 270 1.6 6.4 0.00 0.00 0.00 34 1007.2
20260901184404 23 294 3.2 6.4 0.00 0.00 0.00 35 1007.3
20260901183901 23 13 3.2 6.4 0.00 0.00 0.00 36 1007.3
20260901183356 23 30 3.2 11.3 0.00 0.00 0.00 37 1007.2
20260901182847 23 323 3.2 11.3 0.00 0.00 0.00 36 1007.4
20260901182341 23 317 3.2 9.7 0.00 0.00 0.00 37 1007.4
20260901182110 23 62 4.8 9.7 0.00 0.00 0.00 37 1007.3
20260901181330 23 34 1.6 9.7 0.00 0.00 0.00 38 1007.3
20260901181101 23 18 1.6 8.0 0.00 0.00 0.00 38 1007.4
20260901180326 22 355 1.6 8.0 0.00 0.00 0.00 39 1007.4
20260901175827 22 349 1.6 8.0 0.00 0.00 0.00 39 1007.3
20260901175326 22 269 1.6 4.8 0.00 0.00 0.00 40 1007.4
20260901174825 22 300 3.2 8.0 0.00 0.00 0.00 40 1007.5
20260901174554 22 301 3.2 8.0 0.00 0.00 0.00 40 1007.5
20260901173822 22 27 3.2 6.4 0.00 0.00 0.00 41 1007.5
20260901173324 21 355 3.2 14.5 0.00 0.00 0.00 41 1007.5
20260901172826 21 350 1.6 14.5 0.00 0.00 0.00 41 1007.4
20260901172329 21 293 1.6 9.7 0.00 0.00 0.00 42 1007.4
20260901171832 21 275 1.6 9.7 0.00 0.00 0.00 42 1007.4
20260901171322 21 277 1.6 6.4 0.00 0.00 0.00 42 1007.4
20260901170822 21 135 1.6 6.4 0.00 0.00 0.00 42 1007.3
20260901170322 21 111 1.6 4.8 0.00 0.00 0.00 42 1007.3
20260901165822 20 112 1.6 8.0 0.00 0.00 0.00 43 1007.3
20260901165602 20 124 1.6 8.0 0.00 0.00 0.00 43 1007.3
20260901164819 20 156 1.6 8.0 0.00 0.00 0.00 44 1007.3
20260901164318 19 140 1.6 9.7 0.00 0.00 0.00 44 1007.4
20260901163818 19 126 1.6 9.7 0.00 0.00 0.00 44 1007.5
20260901163318 18 130 1.6 9.7 0.00 0.00 0.00 45 1007.4
20260901162817 18 148 1.6 9.7 0.00 0.00 0.00 46 1007.4
20260901162320 18 140 1.6 9.7 0.00 0.00 0.00 46 1007.4
20260901161818 18 119 1.6 9.7 0.00 0.00 0.00 47 1007.4
20260901161318 17 123 1.6 9.7 0.00 0.00 0.00 47 1007.5
20260901161058 17 112 1.6 9.7 0.00 0.00 0.00 49 1007.5
20260901160317 16 142 1.6 4.8 0.00 0.00 0.00 50 1007.7
20260901155815 16 143 1.6 6.4 0.00 0.00 0.00 50 1007.7
20260901155317 16 142 1.6 9.7 0.00 0.00 0.00 51 1007.8
20260901154813 15 140 1.6 9.7 0.00 0.00 0.00 51 1007.8
20260901154315 15 144 1.6 8.0 0.00 0.00 0.00 52 1007.8
20260901153817 15 142 3.2 6.4 0.00 0.00 0.00 52 1007.8
20260901153314 14 138 3.2 9.7 0.00 0.00 0.00 53 1007.9
20260901152814 14 148 1.6 9.7 0.00 0.00 0.00 54 1007.9
20260901152313 13 150 1.6 9.7 0.00 0.00 0.00 55 1008.0
20260901151816 13 162 3.2 9.7 0.00 0.00 0.00 56 1008.0
20260901151315 13 150 3.2 11.3 0.00 0.00 0.00 56 1008.0
20260901150810 13 150 4.8 12.9 0.00 0.00 0.00 56 1008.0
20260901150302 13 153 4.8 12.9 0.00 0.00 0.00 57 1007.9
20260901145758 12 144 6.4 12.9 0.00 0.00 0.00 57 1007.9
20260901145251 12 145 6.4 12.9 0.00 0.00 0.00 58 1007.8
20260901145010 12 144 6.4 11.3 0.00 0.00 0.00 59 1007.7
20260901144239 11 144 4.8 12.9 0.00 0.00 0.00 60 1007.4
20260901143732 11 155 4.8 12.9 0.00 0.00 0.00 61 1007.4
20260901143226 11 141 6.4 11.3 0.00 0.00 0.00 61 1007.3
20260901142721 11 137 6.4 11.3 0.00 0.00 0.00 62 1007.3
20260901142215 11 138 4.8 9.7 0.00 0.00 0.00 62 1007.3
20260901141709 11 143 4.8 9.7 0.00 0.00 0.00 62 1007.3
20260901141202 11 140 1.6 6.4 0.00 0.00 0.00 62 1007.2
20260901140659 11 144 0.0 3.2 0.00 0.00 0.00 62 1007.1
20260901140151 11 144 1.6 6.4 0.00 0.00 0.00 62 1007.0
20260901135644 11 144 3.2 6.4 0.00 0.00 0.00 62 1007.1
20260901135145 11 148 3.2 6.4 0.00 0.00 0.00 62 1007.0
20260901134632 11 144 3.2 8.0 0.00 0.00 0.00 61 1006.9
20260901134129 11 145 3.2 8.0 0.00 0.00 0.00 61 1007.0
20260901133627 11 145 1.6 6.4 0.00 0.00 0.00 61 1006.9
20260901133349 11 146 1.6 4.8 0.00 0.00 0.00 61 1006.9
20260901132627 11 150 1.6 3.2 0.00 0.00 0.00 61 1007.0
20260901132128 11 150 0.0 3.2 0.00 0.00 0.00 61 1007.0
20260901131627 11 150 0.0 3.2 0.00 0.00 0.00 61 1006.9
20260901131125 12 150 0.0 3.2 0.00 0.00 0.00 61 1007.0
20260901130623 12 151 0.0 3.2 0.00 0.00 0.00 60 1006.9
20260901130122 12 150 0.0 3.2 0.00 0.00 0.00 60 1007.0
20260901125620 12 150 1.6 8.0 0.00 0.00 0.00 60 1006.9
20260901125119 12 150 1.6 8.0 0.00 0.00 0.00 59 1006.8
20260901124633 12 150 3.2 8.0 0.00 0.00 0.00 60 1006.8
20260901124120 12 153 3.2 8.0 0.00 0.00 0.00 60 1006.8
20260901123619 12 163 3.2 6.4 0.00 0.00 0.00 59 1006.8
20260901123348 12 171 1.6 6.4 0.00 0.00 0.00 59 1006.9
20260901122619 12 226 1.6 4.8 0.00 0.00 0.00 58 1006.9
20260901122120 12 234 0.0 4.8 0.00 0.00 0.00 57 1006.8
20260901121847 13 259 0.0 1.6 0.00 0.00 0.00 58 1006.9
20260901121113 13 259 0.0 1.6 0.00 0.00 0.00 57 1006.9
20260901120610 13 259 0.0 1.6 0.00 0.00 0.00 58 1006.9
20260901115555 13 259 0.0 0.0 0.00 0.00 0.00 57 1006.9
20260901115048 13 259 0.0 0.0 0.00 0.00 0.00 57 1007.0
20260901114542 13 259 0.0 0.0 0.00 0.00 0.00 56 1007.0
20260901114037 13 259 0.0 0.0 0.00 0.00 0.00 56 1007.0
20260901113537 13 259 0.0 0.0 0.00 0.00 0.00 56 1007.0
20260901113037 13 259 0.0 0.0 0.00 0.00 0.00 56 1006.9
20260901112537 13 259 0.0 0.0 0.00 0.00 0.00 56 1007.0
20260901112306 13 259 0.0 0.0 0.00 0.00 0.00 56 1006.8
20260901111535 13 259 0.0 0.0 0.00 0.00 0.00 54 1006.8
20260901111041 13 259 0.0 0.0 0.00 0.00 0.00 55 1006.9
20260901110533 13 259 0.0 0.0 0.00 0.00 0.00 54 1006.9
20260901110033 13 259 0.0 0.0 0.00 0.00 0.00 53 1006.9
20260901105533 14 259 0.0 0.0 0.00 0.00 0.00 52 1006.9
20260901105034 14 259 0.0 0.0 0.00 0.00 0.00 51 1006.9
20260901104533 15 259 0.0 0.0 0.00 0.00 0.00 51 1007.0
20260901104033 15 259 0.0 0.0 0.00 0.00 0.00 51 1007.0
20260901103532 15 259 0.0 1.6 0.00 0.00 0.00 51 1007.0
20260901103033 15 259 0.0 1.6 0.00 0.00 0.00 51 1007.0
20260901102532 15 259 0.0 0.0 0.00 0.00 0.00 50 1007.1
20260901102033 15 259 0.0 1.6 0.00 0.00 0.00 50 1007.0
20260901101534 15 259 0.0 1.6 0.00 0.00 0.00 49 1007.0
20260901101032 15 259 0.0 0.0 0.00 0.00 0.00 49 1007.0
20260901100532 15 259 0.0 1.6 0.00 0.00 0.00 49 1007.0
20260901100032 16 259 0.0 4.8 0.00 0.00 0.00 49 1007.1
20260901095533 16 259 1.6 4.8 0.00 0.00 0.00 48 1007.1
20260901095031 16 259 1.6 4.8 0.00 0.00 0.00 48 1007.1
20260901094755 15 263 1.6 4.8 0.00 0.00 0.00 48 1007.2
20260901094029 15 263 1.6 4.8 0.00 0.00 0.00 48 1007.2
20260901093526 15 266 1.6 4.8 0.00 0.00 0.00 47 1007.1
20260901093026 15 275 0.0 3.2 0.00 0.00 0.00 47 1007.1
20260901092525 16 277 0.0 3.2 0.00 0.00 0.00 47 1007.2
20260901092023 15 278 0.0 3.2 0.00 0.00 0.00 47 1007.2
20260901091523 16 281 0.0 3.2 0.00 0.00 0.00 47 1007.3
20260901091023 16 281 0.0 3.2 0.00 0.00 0.00 47 1007.2
20260901090523 16 281 0.0 3.2 0.00 0.00 0.00 47 1007.2
20260901090016 16 281 0.0 4.8 0.00 0.00 0.00 47 1007.4
20260901085517 16 281 0.0 4.8 0.00 0.00 0.00 46 1007.3
20260901085240 16 284 0.0 3.2 0.00 0.00 0.00 46 1007.3
20260901084738 16 284 0.0 4.8 0.00 0.00 0.00 45 1007.2
20260901084018 16 284 0.0 4.8 0.00 0.00 0.00 45 1007.3
20260901083514 16 285 0.0 4.8 0.00 0.00 0.00 44 1007.4
20260901083243 16 298 0.0 3.2 0.00 0.00 0.00 45 1007.4
20260901082509 16 298 0.0 3.2 0.00 0.00 0.00 45 1007.3
20260901082002 16 298 0.0 3.2 0.00 0.00 0.00 44 1007.3
20260901081456 16 298 0.0 3.2 0.00 0.00 0.00 44 1007.4
20260901080949 16 298 0.0 3.2 0.00 0.00 0.00 43 1007.3
20260901080444 16 298 1.6 3.2 0.00 0.00 0.00 42 1007.3
20260901075938 16 299 1.6 3.2 0.00 0.00 0.00 41 1007.3
20260901075433 16 301 1.6 3.2 0.00 0.00 0.00 41 1007.3
20260901074926 16 301 1.6 3.2 0.00 0.00 0.00 40 1007.3
20260901074912 16 301 1.6 3.2 0.00 0.00 0.00 39 1007.3
20260901073915 16 301 0.0 1.6 0.00 0.00 0.00 39 1007.4
20260901073636 16 301 0.0 1.6 0.00 0.00 0.00 39 1007.4
20260901072902 16 301 0.0 3.2 0.00 0.00 0.00 39 1007.4
20260901072356 16 301 0.0 3.2 0.00 0.00 0.00 39 1007.5
20260901071850 16 302 0.0 1.6 0.00 0.00 0.00 38 1007.5
20260901071344 16 302 0.0 1.6 0.00 0.00 0.00 38 1007.4
20260901070839 16 302 0.0 3.2 0.00 0.00 0.00 38 1007.4